Location: *
(51.8167°N, 12.5000°E)
Time: 19:25:39
(UTC+00:00)

Okean 2 Rocket - Pass Details

Date: 16 September 2019
Orbit: 617 x 641 km, 82.5° (Epoch: 15 October)

Event Time Altitude Azimuth Distance (km) Brightness Sun altitude
Rises 18:21:20 0° 202° (SSW) 2,911 6.6 -9.6°
Reaches altitude 10° 18:23:36 10° 207° (SSW) 2,012 5.8 -10.0°
Maximum altitude 18:27:58 53° 285° (WNW) 784 4.0 -10.6°
Drops below altitude 10° 18:32:25 10° 3° (N) 2,041 5.9 -11.3°
Sets 18:34:44 0° 8° (N) 2,957 6.7 -11.6°
